Weather History for Douglas, WY

Change the Weather History Date:

Thursday, December 12, 2013

  Actual Average Record
Temperature  
Mean Temperature 31 °F 24 °F  
Max Temperature 51 °F 37 °F 55 °F (1962)
Min Temperature 11 °F 11 °F -18 °F (2007)
Degree Days  
Heating Degree Days 34 41  
Month to date heating degree days 619 482  
Since 1 July heating degree days 2356 2304  
Cooling Degree Days 0 0  
Month to date cooling degree days 0 0  
Year to date cooling degree days 739 486  
Moisture  
Dew Point 14 °F    
Average Humidity 50    
Maximum Humidity 68    
Minimum Humidity 31    
Precipitation  
Precipitation 0.00 in 0.02 in 0.68 in (1992)
Month to date precipitation T 0.18  
Year to date precipitation 9.48 13.17  
Sea Level Pressure  
Sea Level Pressure 30.17 in    
Wind  
Wind Speed 5 mph (NW)    
Max Wind Speed 16 mph    
Max Gust Speed 21 mph    
Visibility 10 miles    
Events      
T = Trace of Precipitation, MM = Missing Value Source: NWS Daily Summary

Daily Weather History Graph

Daily Weather History Graph

Search for Another Location

Airport:

Trip Planner

Search our weather history database for the weather conditions in past years. The results will help you decide how hot, cold, wet, or windy it might be!

Date:

Astronomy

Dec. 12, 2013 Rise Set
Actual Time 7:23 AM MST 4:27 PM MST
Civil Twilight 6:50 AM MST 4:59 PM MST
Nautical Twilight 6:15 AM MST 5:35 PM MST
Astronomical Twilight 5:40 AM MST 6:09 PM MST
Moon 1:40 PM MST (12/12) 2:43 AM MST (12/12)
Length of Visible Light 10h 08m
Length of Day
9h 04m
Waxing Gibbous, 81% of the Moon is Illuminated
Dec 12
Waxing Gibbous
Dec 17
Full
Dec 25
Last Quarter
Jan 1
New
Jan 7
First Quarter

Hourly Weather History & Observations

Time (MST) Temp. Windchill Dew Point Humidity Pressure Visibility Wind Dir Wind Speed Gust Speed Precip Events Conditions
12:53 AM 18.0 °F 9.8 °F 6.1 °F 60% 30.38 in 10.0 mi SSW 5.8 mph - N/A   Clear
1:53 AM 21.0 °F - 7.0 °F 55% 30.35 in 10.0 mi Calm Calm - N/A   Clear
2:53 AM 15.1 °F 9.4 °F 5.0 °F 64% 30.35 in 10.0 mi NW 3.5 mph - N/A   Clear
3:53 AM 25.0 °F 15.5 °F 10.0 °F 53% 30.27 in 10.0 mi North 9.2 mph - N/A   Clear
4:53 AM 28.9 °F 19.2 °F 12.9 °F 51% 30.27 in 10.0 mi NNW 11.5 mph - N/A   Clear
5:53 AM 30.9 °F 20.7 °F 12.9 °F 47% 30.27 in 10.0 mi WNW 13.8 mph - N/A   Clear
6:53 AM 27.0 °F 16.7 °F 12.9 °F 56% 30.29 in 10.0 mi NW 11.5 mph - N/A   Clear
7:53 AM 27.0 °F 19.5 °F 12.0 °F 53% 30.32 in 10.0 mi North 6.9 mph - N/A   Clear
8:53 AM 30.0 °F - 14.0 °F 51% 30.31 in 10.0 mi Calm Calm - N/A   Clear
9:53 AM 33.1 °F 27.7 °F 16.0 °F 50% 30.31 in 10.0 mi SSE 5.8 mph - N/A   Clear
10:53 AM 37.9 °F 35.5 °F 18.0 °F 45% 30.27 in 10.0 mi SE 3.5 mph - N/A   Clear
11:53 AM 39.0 °F 34.8 °F 19.0 °F 45% 30.20 in 10.0 mi South 5.8 mph - N/A   Clear
12:53 PM 46.0 °F - 18.0 °F 33% 30.13 in 10.0 mi Calm Calm - N/A   Clear
1:53 PM 48.9 °F - 19.0 °F 31% 30.09 in 10.0 mi Calm Calm - N/A   Clear
2:53 PM 46.0 °F 41.9 °F 23.0 °F 40% 30.10 in 10.0 mi NNW 8.1 mph - N/A   Clear
3:53 PM 43.0 °F 41.3 °F 21.9 °F 43% 30.07 in 10.0 mi NNE 3.5 mph - N/A   Clear
4:53 PM 37.0 °F 33.3 °F 19.9 °F 50% 30.06 in 10.0 mi NW 4.6 mph - N/A   Clear
5:53 PM 36.0 °F 29.0 °F 17.1 °F 46% 30.05 in 10.0 mi North 9.2 mph - 0.00 in   Clear
6:53 PM 32.0 °F - 17.1 °F 54% 30.07 in 10.0 mi Calm Calm - N/A   Clear
7:53 PM 28.9 °F 23.9 °F 14.0 °F 54% 30.06 in 10.0 mi NNW 4.6 mph - N/A   Clear
8:53 PM 24.1 °F 17.0 °F 12.9 °F 62% 30.05 in 10.0 mi NW 5.8 mph - N/A   Clear
9:53 PM 21.0 °F 11.4 °F 12.0 °F 68% 30.02 in 10.0 mi ESE 8.1 mph - N/A   Clear
10:53 PM 26.1 °F 20.5 °F 10.9 °F 53% 29.97 in 10.0 mi SSE 4.6 mph - N/A   Clear
11:53 PM 32.0 °F 27.5 °F 10.0 °F 40% 29.91 in 10.0 mi WSW 4.6 mph - N/A   Clear